DW4063 Weather Reports


time (UTC)temp
C
wind
direction
speed
KPH
gust
KPH
rain 1hr
cm
rain 24hr
cm
rain mn
cm
humidity
%
barometer
mb
20210723144755 26 284 0.0 11.3 0.00 0.00 0.00 80 1017.4
20210723143115 26 284 0.0 6.4 0.00 0.00 0.00 81 1017.5
20210723141600 25 284 0.0 8.0 0.00 0.00 0.00 84 1017.4
20210723140106 25 284 1.6 6.4 0.00 0.00 0.00 86 1017.3
20210723134551 24 284 0.0 3.2 0.00 0.00 0.00 90 1017.3
20210723133042 23 284 0.0 3.2 0.00 0.00 0.00 91 1017.3
20210723131539 23 284 0.0 0.0 0.00 0.00 0.00 92 1017.3
20210723130053 23 284 0.0 0.0 0.00 0.00 0.00 94 1017.4
20210723124606 22 284 0.0 3.2 0.00 0.00 0.00 95 1017.3
20210723123101 22 284 0.0 4.8 0.00 0.00 0.00 95 1017.3
20210723121557 22 284 0.0 0.0 0.00 0.00 0.00 96 1017.3
20210723120050 21 284 0.0 0.0 0.00 0.00 0.00 95 1017.3
20210723114611 21 284 0.0 0.0 0.00 0.00 0.00 95 1017.6
20210723113027 21 284 0.0 0.0 0.00 0.00 0.00 95 1017.6
20210723111541 21 284 0.0 0.0 0.00 0.00 0.00 94 1017.4
20210723110059 22 284 0.0 0.0 0.00 0.00 0.00 94 1017.3
20210723104527 22 284 0.0 0.0 0.00 0.00 0.00 94 1017.1
20210723103043 22 284 0.0 0.0 0.00 0.00 0.00 93 1016.9
20210723101517 22 284 0.0 0.0 0.00 0.00 0.00 93 1016.7
20210723100059 22 284 0.0 0.0 0.00 0.00 0.00 93 1016.6
20210723094522 22 284 0.0 0.0 0.00 0.00 0.00 93 1016.6
20210723093041 22 284 0.0 1.6 0.00 0.00 0.00 92 1016.8
20210723091517 23 284 0.0 1.6 0.00 0.00 0.00 92 1016.6
20210723090027 23 284 0.0 3.2 0.00 0.00 0.00 91 1016.7
20210723084521 23 284 0.0 0.0 0.00 0.00 0.00 91 1016.9
20210723083006 23 284 0.0 1.6 0.00 0.00 0.00 90 1016.8
20210723081504 23 284 0.0 3.2 0.00 0.00 0.00 90 1016.8
20210723080001 23 284 0.0 4.8 0.00 0.00 0.00 89 1016.9
20210723073134 24 284 0.0 8.0 0.00 0.00 0.00 89 1016.9
20210723071733 24 285 0.0 8.0 0.00 0.00 0.00 89 1016.9
20210723070218 24 290 0.0 11.3 0.00 0.00 0.00 89 1016.9
20210723064712 24 296 0.0 6.4 0.00 0.00 0.00 89 1017.0
20210723063157 24 296 0.0 0.0 0.00 0.00 0.00 89 1017.2
20210723061705 24 296 0.0 0.0 0.00 0.00 0.00 89 1017.3
20210723060347 24 296 0.0 0.0 0.00 0.00 0.00 89 1017.4
20210723054655 24 296 0.0 0.0 0.00 0.00 0.00 88 1017.4
20210723053225 24 296 0.0 0.0 0.00 0.00 0.00 88 1017.5
20210723051612 25 296 0.0 0.0 0.00 0.00 0.00 87 1017.5
20210723050253 25 296 0.0 0.0 0.00 0.00 0.00 87 1017.4
20210723044657 24 296 0.0 0.0 0.00 0.00 0.00 88 1017.7
20210723043131 24 296 0.0 0.0 0.00 0.00 0.00 88 1017.6
20210723041640 24 297 0.0 0.0 0.00 0.00 0.00 89 1017.4
20210723040105 24 297 0.0 0.0 0.00 0.00 0.00 89 1017.3
20210723034632 23 297 0.0 0.0 0.00 0.00 0.00 89 1017.3
20210723033106 23 297 0.0 0.0 0.00 0.00 0.00 88 1017.3
20210723031637 23 297 0.0 0.0 0.00 0.00 0.00 88 1017.1
20210723030131 23 297 0.0 0.0 0.00 0.00 0.00 87 1017.3
20210723024600 23 297 0.0 0.0 0.00 0.00 0.00 87 1017.3
20210723023137 23 297 0.0 0.0 0.00 0.00 0.00 86 1017.0
20210723021730 23 297 0.0 0.0 0.00 0.00 0.00 86 1017.0
20210723020141 24 297 0.0 0.0 0.00 0.00 0.00 84 1016.9
20210723014655 25 297 0.0 0.0 0.00 0.00 0.00 82 1016.9
20210723013057 25 297 0.0 0.0 0.00 0.00 0.00 80 1016.9
20210723011616 26 297 0.0 0.0 0.00 0.00 0.00 78 1017.0
20210723010119 26 297 0.0 0.0 0.00 0.00 0.00 77 1017.0
20210723004547 26 297 0.0 0.0 0.00 0.00 0.00 76 1016.9
20210723003159 27 297 0.0 0.0 0.00 0.00 0.00 76 1017.0
20210723001622 27 297 0.0 0.0 0.00 0.00 0.00 77 1017.0
20210723000133 27 297 0.0 0.0 0.00 0.00 0.00 75 1017.0
20210722234612 27 297 0.0 0.0 0.00 0.00 0.00 73 1017.0
20210722233048 27 297 0.0 0.0 0.00 0.00 0.00 75 1017.0
20210722231541 27 297 0.0 0.0 0.00 0.00 0.00 77 1017.1
20210722230122 28 297 0.0 0.0 0.00 0.00 0.00 76 1017.0
20210722224604 28 297 0.0 0.0 0.00 0.00 0.00 73 1017.2
20210722223116 28 297 0.0 0.0 0.00 0.00 0.00 74 1017.2
20210722221548 28 297 0.0 0.0 0.00 0.00 0.00 72 1017.4
20210722220109 28 297 0.0 0.0 0.00 0.00 0.00 67 1017.4
20210722214639 28 297 0.0 0.0 0.00 0.00 0.00 71 1017.5
20210722213056 28 297 0.0 1.6 0.00 0.00 0.00 71 1017.6
20210722211607 28 297 0.0 0.0 0.00 0.00 0.00 73 1017.5
20210722210120 28 297 0.0 6.4 0.00 0.00 0.00 69 1017.5
20210722204605 28 298 0.0 6.4 0.00 0.00 0.00 70 1017.7
20210722203052 28 298 0.0 6.4 0.00 0.00 0.00 71 1017.8
20210722201528 28 297 0.0 8.0 0.00 0.00 0.00 72 1017.8
20210722200105 27 297 0.0 14.5 0.00 0.00 0.00 76 1018.1
20210722194517 27 298 0.0 8.0 0.00 0.00 0.00 74 1018.1
20210722193036 27 297 0.0 3.2 0.00 0.00 0.00 76 1018.0
20210722191519 27 297 0.0 0.0 0.00 0.00 0.00 76 1018.1
20210722190038 28 298 0.0 3.2 0.00 0.00 0.00 75 1018.1
20210722184538 27 300 0.0 8.0 0.00 0.00 0.00 77 1018.3
20210722183017 27 302 0.0 3.2 0.00 0.00 0.00 75 1018.4
20210722181548 27 302 0.0 6.4 0.00 0.00 0.00 75 1018.6
20210722180006 27 302 0.0 9.7 0.00 0.00 0.00 74 1018.7
20210722174511 27 316 0.0 8.0 0.00 0.00 0.00 74 1018.9
20210722173006 27 316 0.0 9.7 0.00 0.00 0.00 75 1019.1
20210722171618 27 316 0.0 6.4 0.00 0.00 0.00 74 1019.3
20210722170218 26 316 0.0 6.4 0.00 0.00 0.00 75 1019.4
20210722164604 25 316 0.0 0.0 0.00 0.00 0.00 77 1019.7
20210722163146 25 316 0.0 1.6 0.00 0.00 0.00 76 1019.8
20210722161706 24 316 0.0 4.8 0.00 0.00 0.00 78 1019.9
20210722160133 23 316 0.0 0.0 0.00 0.00 0.00 80 1019.9
20210722154652 23 316 0.0 0.0 0.00 0.00 0.00 80 1020.0
20210722153057 23 316 0.0 0.0 0.00 0.00 0.00 80 1020.0
20210722151706 23 316 0.0 1.6 0.00 0.00 0.00 79 1020.0